Flag Weather past 2 weeks in Norrköping, Sweden

Now
36 °F

Sunny.


Feels Like: 36 °F
Forecast: 33 / 37 °F
Wind: 2 mph from East

Location: Norrkoping Airport

Current Time: Nov 28, 2014 at 11:01:29 AM

Latest Report: Nov 28, 2014 at 10:20 AM


Visibility: 10 mi

Pressure: 30.42 "Hg

Humidity: 100%

Dew point: 36 °F

Location of NorrköpingLocation

Historic Weather in Norrköping — Graph

°F

Norrköping temperature yesterday

Maximum temperature yesterday: 37 °F (at 12:20 PM)
Minimum temperature yesterday: 32 °F (at 12:20 AM)
Average temperature yesterday: 35 °F

Past Weeks' High & Low Weather Summary

 TemperatureHumidityPressure
High46 °F (Nov 13, 9:20 AM)100% (Nov 13, 10:20 AM)30.45 "Hg (Nov 13, 10:20 AM)
Low27 °F (Nov 26, 12:50 AM)70% (Nov 19, 2:50 PM)29.83 "Hg (Nov 24, 1:50 PM)
Average40 °F91%30.24 "Hg
* Reported Nov 13 9:20 AM — Nov 28 9:50 AM, Norrköping, Weather by CustomWeather, © 2014

Note: Actual official high and low records may vary slightly from our data, if they occured in-between our weather recording intervals... More about our weather records

Advertising

Norrköping weather history for previous 24 hours

 ConditionsComfort  
Time TempWeatherWind HumidityBarometerVisibility
9:50 AM
Nov 28
37 °FSunny.No wind100%30.42 "Hg10 mi
9:20 AM36 °FFog.2 mph100%30.42 "Hg5 mi
8:50 AM36 °FFog.1 mph100%30.39 "Hg5 mi
8:20 AM34 °FFog.No wind100%30.39 "Hg6 mi
7:50 AM36 °FFog.No wind100%30.39 "Hg6 mi
7:20 AM36 °FFog.3 mph100%30.39 "Hg5 mi
6:50 AM34 °FLow clouds.3 mph100%30.36 "Hg4 mi
6:20 AM34 °FLow clouds.2 mph100%30.36 "Hg3 mi
5:50 AM34 °FLow clouds.3 mph100%30.36 "Hg2 mi
5:20 AM36 °FFog.5 mph100%30.36 "Hg0 mi
4:20 AM36 °FFog.3 mph100%30.33 "Hg0 mi
3:50 AM36 °FFog.2 mph100%30.33 "Hg1 mi
3:20 AM36 °FLow clouds.5 mph100%30.33 "Hg0 mi
2:50 AM36 °FFog.3 mph100%30.33 "Hg1 mi
2:20 AM36 °FFog.1 mph100%30.33 "Hg0 mi
1:50 AM36 °FFog.1 mph100%30.33 "Hg1 mi
1:20 AM36 °FMostly cloudy.3 mph100%30.33 "Hg1 mi
12:50 AM36 °FFog.3 mph100%30.33 "Hg0 mi
12:20 AM36 °FFog.2 mph100%30.30 "Hg0 mi
11:50 PM
Nov 27
36 °FFog.3 mph100%30.30 "Hg0 mi
11:20 PM36 °FFog.3 mph100%30.30 "Hg0 mi
10:50 PM36 °FFog.2 mph100%30.30 "Hg0 mi
10:20 PM36 °FFog.3 mph100%30.30 "Hg0 mi
9:50 PM36 °FFog.2 mph100%30.30 "Hg2 mi
9:20 PM36 °FLow clouds.1 mph100%30.30 "Hg3 mi
8:50 PM36 °FLow clouds.No wind100%30.27 "Hg1 mi
8:20 PM36 °FFog.2 mph100%30.27 "Hg0 mi
7:50 PM36 °FFog.2 mph100%30.27 "Hg0 mi
7:20 PM36 °FFog.2 mph100%30.27 "Hg0 mi
6:50 PM36 °FFog.1 mph100%30.24 "Hg0 mi
6:20 PM36 °FFog.3 mph100%30.24 "Hg0 mi
5:50 PM36 °FFog.5 mph100%30.24 "Hg1 mi
5:20 PM37 °FFog.3 mph100%30.24 "Hg1 mi
4:50 PM37 °FFog.5 mph100%30.24 "Hg6 mi
4:20 PM37 °FFog.No wind100%30.24 "Hg2 mi
3:50 PM37 °FFog.1 mph100%30.24 "Hg2 mi
3:20 PM37 °FSnow. Fog.1 mph100%30.24 "Hg3 mi
2:50 PM37 °FFog.2 mph100%30.21 "Hg3 mi
2:20 PM37 °FFog.2 mph100%30.21 "Hg2 mi
1:50 PM37 °FFog.3 mph100%30.21 "Hg6 mi
1:20 PM37 °FLow clouds.2 mph100%30.21 "HgN/A
12:50 PM37 °FMostly cloudy.3 mph100%30.21 "HgN/A
12:20 PM37 °FPartly sunny.3 mph100%30.21 "HgN/A
11:50 AM36 °FFog.3 mph100%30.24 "Hg6 mi
11:20 AM36 °FFog.5 mph100%30.24 "Hg6 mi
Weather by CustomWeather, © 2014

See weather overviewHow to use our weather pages